Location: ??????
(56.0120°N, 39.1740°E)
Time: 10:25:58
(UTC+00:00)

MOS 1 - Pass Details

Date: 14 April 2026
Orbit: 877 x 888 km, 98.8° (Epoch: 19 May)

Event Time Altitude Azimuth Distance (km) Brightness Sun altitude
Rises 17:05:58 0° 157° (SSE) 3,465 6.9 -5.7°
Reaches altitude 10° 17:08:21 10° 156° (SSE) 2,531 6.2 -6.0°
Maximum altitude 17:13:59 81° 70° (ENE) 899 4.3 -6.7°
Drops below altitude 10° 17:19:40 10° 345° (NNW) 2,554 7.4 -7.4°
Sets 17:22:05 0° 344° (NNW) 3,498 8.2 -7.7°
